This is the latest recevied weather packets stored in our database for station/object NK2J. If no packets are shown the sender has not sent any weather packets the latest 10 day(s).
| Time | Temp. | Humidity | Pressure | Rain* | Wind** | Luminosity | Snow |
|---|---|---|---|---|---|---|---|
| 1777764808 | 32.78° C | 16% | 1012 hPa | 0 mm | - | 171 W/m² | - |
| 1777764505 | 32.78° C | 17% | 1011.9 hPa | 0 mm | - | 226 W/m² | - |
| 1777764201 | 32.78° C | 17% | 1012 hPa | 0 mm | - | 360 W/m² | - |
| 1777763898 | 32.78° C | 16% | 1011.7 hPa | 0 mm | - | 367 W/m² | - |
| 1777763596 | 32.78° C | 17% | 1011.8 hPa | 0 mm | - | 419 W/m² | - |
| 1777763294 | 32.22° C | 17% | 1011.9 hPa | 0 mm | - | 440 W/m² | - |
| 1777762991 | 32.22° C | 17% | 1012 hPa | 0 mm | - | 415 W/m² | - |
| 1777762688 | 32.78° C | 18% | 1012.1 hPa | 0 mm | - | 213 W/m² | - |
| 1777762385 | 32.78° C | 21% | 1012.1 hPa | 0 mm | - | 344 W/m² | - |
| 1777762081 | 32.78° C | 16% | 1012.2 hPa | 0 mm | - | 449 W/m² | - |
| 1777761778 | 32.78° C | 16% | 1012.2 hPa | 0 mm | - | 482 W/m² | - |
| 1777761475 | 32.22° C | 17% | 1012.3 hPa | 0 mm | - | 486 W/m² | - |
| 1777761174 | 32.22° C | 17% | 1012.4 hPa | 0 mm | - | 460 W/m² | - |
| 1777760871 | 32.22° C | 19% | 1012.4 hPa | 0 mm | - | 142 W/m² | - |
| 1777760568 | 32.22° C | 17% | 1012.3 hPa | 0 mm | - | 487 W/m² | - |
| 1777760263 | 32.78° C | 19% | 1012.5 hPa | 0 mm | - | 477 W/m² | - |
| 1777759960 | 32.78° C | 17% | 1012.7 hPa | 0 mm | - | 544 W/m² | - |
| 1777759657 | 32.22° C | 18% | 1012.7 hPa | 0 mm | - | 577 W/m² | - |
| 1777759353 | 32.22° C | 18% | 1013 hPa | 0 mm | - | 586 W/m² | - |
| 1777759050 | 32.22° C | 18% | 1013 hPa | 0 mm | - | 596 W/m² | - |
| 1777758747 | 32.22° C | 18% | 1013.1 hPa | 0 mm | - | 241 W/m² | - |
| 1777758444 | 32.22° C | 18% | 1013.1 hPa | 0 mm | - | 639 W/m² | - |
| 1777758141 | 33.33° C | 17% | 1013.2 hPa | 0 mm | - | 627 W/m² | - |
| 1777757838 | 33.33° C | 18% | 1013.2 hPa | 0 mm | - | 637 W/m² | - |
| 1777757536 | 32.78° C | 20% | 1013.2 hPa | 0 mm | - | 650 W/m² | - |
* Rain latest hour (hover to see other rain measurements)
** Current wind speed in m/s (hover to see current wind gust speed)